This is the latest recevied weather packets stored in our database for station/object K5SVV. If no packets are shown the sender has not sent any weather packets the latest 10 day(s).
| Time | Temp. | Humidity | Pressure | Rain* | Wind** | Luminosity | Snow |
|---|---|---|---|---|---|---|---|
| 1788549697 | 35.56° C | 48% | 1012.7 hPa | 0 mm | - | 552 W/m² | - |
| 1788549394 | 35.56° C | 48% | 1012.9 hPa | 0 mm | - | 759 W/m² | - |
| 1788549090 | 36.11° C | 47% | 1012.7 hPa | 0 mm | - | 701 W/m² | - |
| 1788548785 | 35.56° C | 47% | 1012.6 hPa | 0 mm | - | 733 W/m² | - |
| 1788548481 | 35.56° C | 47% | 1012.8 hPa | 0 mm | - | 780 W/m² | - |
| 1788548178 | 35° C | 49% | 1012.8 hPa | 0 mm | - | 738 W/m² | - |
| 1788547873 | 36.11° C | 48% | 1013.1 hPa | 0 mm | - | 764 W/m² | - |
| 1788547571 | 36.11° C | 47% | 1013.1 hPa | 0 mm | - | 728 W/m² | - |
| 1788547267 | 35.56° C | 47% | 1013.1 hPa | 0 mm | - | 731 W/m² | - |
| 1788546963 | 35° C | 49% | 1013.1 hPa | 0 mm | - | 757 W/m² | - |
| 1788546657 | 35.56° C | 49% | 1013.1 hPa | 0 mm | - | 752 W/m² | - |
| 1788546352 | 35.56° C | 49% | 1013.1 hPa | 0 mm | - | 765 W/m² | - |
| 1788546047 | 35.56° C | 50% | 1013.4 hPa | 0 mm | - | 771 W/m² | - |
| 1788545743 | 35.56° C | 50% | 1013.4 hPa | 0 mm | - | 789 W/m² | - |
| 1788545443 | 35.56° C | 50% | 1013.4 hPa | 0 mm | - | 265 W/m² | - |
| 1788545137 | 35° C | 49% | 1013.6 hPa | 0 mm | - | 703 W/m² | - |
| 1788544832 | 35° C | 49% | 1014 hPa | 0 mm | - | 798 W/m² | - |
| 1788544526 | 34.44° C | 49% | 1013.7 hPa | 0 mm | - | 792 W/m² | - |
| 1788544224 | 34.44° C | 48% | 1013.9 hPa | 0 mm | - | 723 W/m² | - |
| 1788543920 | 34.44° C | 52% | 1013.7 hPa | 0 mm | - | 685 W/m² | - |
| 1788543617 | 34.44° C | 51% | 1013.9 hPa | 0 mm | - | 698 W/m² | - |
| 1788543311 | 33.89° C | 51% | 1013.8 hPa | 0 mm | - | 710 W/m² | - |
| 1788543007 | 33.89° C | 53% | 1014.2 hPa | 0 mm | - | 722 W/m² | - |
| 1788542702 | 33.89° C | 53% | 1014.2 hPa | 0 mm | - | 640 W/m² | - |
| 1788542401 | 33.89° C | 53% | 1013.9 hPa | 0 mm | - | 809 W/m² | - |
* Rain latest hour (hover to see other rain measurements)
** Current wind speed in m/s (hover to see current wind gust speed)